Shelton, WA

9:14 AM PDT on October 23, 2019 (GMT -0700)
Sanderson

Weather History for KSHN - September, 2019

Change the Weather History Date:

Saturday, September 21, 2019

  Actual Average Record
Temperature  
Mean Temperature 62 °F -  
Max Temperature 70 °F 71 °F 89 °F (1952)
Min Temperature 55 °F 47 °F 34 °F (2005)
Degree Days  
Heating Degree Days 4    
Growing Degree Days 12 (Base 50)    
Moisture  
Dew Point 55 °F    
Average Humidity 83    
Maximum Humidity 93    
Minimum Humidity 65    
Precipitation  
Precipitation 0.00 in - - ()
Sea Level Pressure  
Sea Level Pressure 30.09 in    
Wind  
Wind Speed 5 mph (WSW)    
Max Wind Speed 13 mph    
Max Gust Speed -    
Visibility 8 miles    
Events      
Averages and records for this station are not official NWS values.
T = Trace of Precipitation, MM = Missing Value Source: NWS Daily Summary

Daily Weather History Graph

Daily Weather History Graph

Search for Another Location

Airport or City:

Astronomy

Sep. 21, 2019 Rise Set
Actual Time 6:57 AM PDT 7:12 PM PDT
Civil Twilight 6:27 AM PDT 7:43 PM PDT
Nautical Twilight 5:51 AM PDT 8:18 PM PDT
Astronomical Twilight 5:14 AM PDT 8:56 PM PDT
Moon 11:28 PM PDT (9/21) 2:35 PM PDT (9/21)
Length of Visible Light 13h 15m
Length of Day
12h 14m
Waning Gibbous, 53% of the Moon is Illuminated
Sep 21
Waning Gibbous
Sep 21
Last Quarter
Sep 28
New
Oct 5
First Quarter
Oct 13
Full

Hourly Weather History & Observations

Time (PDT) Temp. Dew Point Humidity Pressure Visibility Wind Dir Wind Speed Gust Speed Precip Events Conditions
12:53 AM 57.9 °F 54.0 °F 87% 30.14 in 10.0 mi West 9.2 mph - N/A   Overcast
1:53 AM 57.0 °F 54.0 °F 89% 30.14 in 10.0 mi WSW 6.9 mph - N/A   Overcast
2:39 AM 57.0 °F 54.0 °F 89% 30.13 in 10.0 mi WSW 8.1 mph - N/A   Overcast
2:53 AM 57.0 °F 54.0 °F 89% 30.14 in 10.0 mi WSW 6.9 mph - N/A   Overcast
3:53 AM 57.0 °F 54.0 °F 89% 30.14 in 10.0 mi West 5.8 mph - N/A   Overcast
4:30 AM 55.9 °F 54.0 °F 93% 30.13 in 10.0 mi Calm Calm - N/A   Overcast
4:53 AM 55.9 °F 53.1 °F 90% 30.13 in 10.0 mi Calm Calm - N/A   Overcast
5:53 AM 55.9 °F 53.1 °F 90% 30.12 in 9.0 mi Calm Calm - N/A   Overcast
6:13 AM 55.9 °F 53.1 °F 90% 30.12 in 2.5 mi Calm Calm - N/A   Overcast
6:35 AM 55.9 °F 53.1 °F 90% 30.12 in 5.0 mi Calm Calm - N/A   Overcast
6:53 AM 55.9 °F 53.1 °F 90% 30.13 in 4.0 mi WNW 3.5 mph - N/A   Overcast
7:10 AM 55.9 °F 54.0 °F 93% 30.13 in 3.0 mi WNW 3.5 mph - N/A   Overcast
7:18 AM 55.9 °F 54.0 °F 93% 30.13 in 2.5 mi Calm Calm - N/A   Overcast
7:29 AM 55.9 °F 54.0 °F 93% 30.13 in 1.0 mi Calm Calm - N/A   Overcast
7:53 AM 55.9 °F 54.0 °F 93% 30.13 in 1.0 mi SW 3.5 mph - N/A   Overcast
8:07 AM 55.9 °F 54.0 °F 93% 30.13 in 3.0 mi SW 3.5 mph - N/A   Overcast
8:53 AM 57.0 °F 54.0 °F 89% 30.14 in 10.0 mi WSW 4.6 mph - N/A   Overcast
9:05 AM 57.0 °F 54.0 °F 89% 30.13 in 10.0 mi WSW 4.6 mph - N/A   Overcast
9:28 AM 57.9 °F 53.1 °F 84% 30.13 in 10.0 mi Calm Calm - N/A   Overcast
9:53 AM 59.0 °F 53.1 °F 81% 30.13 in 10.0 mi Calm Calm - N/A   Overcast
10:51 AM 60.8 °F 53.6 °F 77% 30.12 in 10.0 mi Calm Calm - N/A   Overcast
10:53 AM 61.0 °F 54.0 °F 78% 30.12 in 10.0 mi Calm Calm - N/A   Overcast
11:00 AM 61.0 °F 54.0 °F 78% 30.12 in 10.0 mi Calm Calm - N/A   Overcast
11:37 AM 62.1 °F 54.0 °F 75% 30.11 in 10.0 mi Variable 3.5 mph - N/A   Overcast
11:53 AM 63.0 °F 54.0 °F 72% 30.11 in 10.0 mi Calm Calm - N/A   Overcast
12:53 PM 66.0 °F 55.0 °F 68% 30.09 in 10.0 mi WSW 6.9 mph - N/A   Overcast
1:45 PM 66.9 °F 55.0 °F 66% 30.08 in 10.0 mi SW 9.2 mph - N/A   Mostly Cloudy
1:53 PM 66.0 °F 55.0 °F 68% 30.08 in 10.0 mi WSW 4.6 mph - N/A   Mostly Cloudy
2:42 PM 66.9 °F 55.0 °F 66% 30.06 in 10.0 mi WSW 9.2 mph - N/A   Overcast
2:53 PM 66.0 °F 55.0 °F 68% 30.06 in 10.0 mi SW 10.4 mph - N/A   Overcast
3:53 PM 68.0 °F 55.9 °F 65% 30.04 in 10.0 mi SW 9.2 mph - N/A   Mostly Cloudy
4:53 PM 66.9 °F 55.9 °F 68% 30.03 in 10.0 mi WSW 12.7 mph - N/A   Overcast
5:53 PM 66.0 °F 57.0 °F 73% 30.01 in 10.0 mi WSW 10.4 mph - N/A   Overcast
6:53 PM 63.0 °F 57.0 °F 81% 30.00 in 10.0 mi WSW 5.8 mph - N/A   Mostly Cloudy
7:53 PM 62.1 °F 55.9 °F 80% 29.99 in 10.0 mi West 5.8 mph - N/A   Overcast
8:53 PM 61.0 °F 57.0 °F 87% 29.98 in 10.0 mi WSW 3.5 mph - N/A   Overcast
9:53 PM 61.0 °F 57.0 °F 87% 29.97 in 10.0 mi WSW 6.9 mph - N/A   Overcast
10:53 PM 60.1 °F 57.0 °F 90% 29.96 in 10.0 mi WSW 6.9 mph - N/A   Overcast
11:53 PM 59.0 °F 55.9 °F 90% 29.95 in 10.0 mi WSW 4.6 mph - N/A   Mostly Cloudy